Regional Weather Roundup
Issued by NWS Wakefield, VA

Home | Current Version | Previous Version | Graphics & Text | Print | Product List | Glossary On
Versions: 1 2 3 4 5 6 7 8 9 10 11 12 13 14 15 16 17 18 19 20 21 22 23 24 25 26 27 28 29 30 31 32 33 34 35 36 37 38 39 40 41 42 43 44 45 46 47 48 49 50
544
ASUS41 KAKQ 170215
RWRAKQ

REGIONAL WEATHER ROUNDUP
NATIONAL WEATHER SERVICE WAKEFIELD VA
1000 PM EDT MON OCT 16 2017

Note: "fair" indicates few or no clouds below 12,000 feet with no
significant weather and/or obstructions to visibility. * = Denotes
station may not report precipitation (e.g., rain,snow,etc.),
thunder or fog.

VAZ042-051-052>054-056-170300-
NORTHERN VIRGINIA

CITY           SKY/WX    TMP DP  RH WIND       PRES   REMARKS
WASH NATIONAL  CLEAR     57  37  47 NW14      30.23R
DULLES         CLEAR     53  36  52 NW8       30.24R
FORT BELVOIR   CLEAR     50  40  69 NW8       30.23R
QUANTICO       CLEAR     52  44  74 NW6       30.24R
FREDERICKSBRG* CLEAR     49  42  76 NW3       30.23R
STAFFORD*      CLEAR     44  40  86 CALM      30.27R
WARRENTON      CLEAR     41  37  86 NW3       30.24R
CULPEPER*      CLEAR     46  38  74 CALM      30.25R
MANASSAS*      CLEAR     49  37  63 N7        30.25R
LEESBURG*      CLEAR     52  37  58 N7        30.26R
WINCHESTER     CLEAR     45  36  70 CALM      30.26R
FRONT ROYAL*   CLEAR     50  36  57 MISG      30.25R
LURAY*         CLEAR     52  37  58 N5        30.26R
$$

VAZ048-049-060>072-079>083-170300-
CENTRAL AND SOUTH CENTRAL VIRGINIA

CITY           SKY/WX    TMP DP  RH WIND       PRES   REMARKS
RICHMOND       CLEAR     50  43  77 N6        30.22R
CHESTERFIELD*  NOT AVBL
PETERSBURG*    CLEAR     51  43  75 N7        30.22R
HANOVER        CLEAR     49  43  80 NW3       30.23R
TAPPAHANNOCK*  CLEAR     52  36  55 CALM      30.22R
QUINTON*       FAIR      48  46  91 N6        30.21R
CHARLOTTSVILLE CLEAR     54  38  54 NW6       30.24R
GORDONSVILLE*  CLEAR     53  40  62 NW5       30.23R
ORANGE*        CLEAR     45  39  81 CALM      30.24R
LOUISA*        CLEAR     41  37  87 CALM      30.23R
BUMPASS*       FAIR      54  38  54 CALM      30.23R
FARMVILLE*     CLEAR     53  44  72 CALM      30.23R
CREWE*         FAIR      47  47 100 CALM      30.23R
FORT PICKETT*  FAIR      49  46  88 N5        30.23R
CHASE CITY*    FAIR      51  42  70 CALM      30.23R
CLARKSVILLE*   FAIR      54  45  71 N5        30.22R
SOUTH HILL*    CLEAR     49  46  89 N3        30.28R
LAWRENCEVILLE* FAIR      50  46  85 CALM      30.21R
EMPORIA*       CLEAR     45  45 100 CALM      30.23R
$$

VAZ088>098-170300-
SOUTHEAST VIRGINIA

CITY           SKY/WX    TMP DP  RH WIND       PRES   REMARKS
NORFOLK        MOCLDY    63  48  58 N13G23    30.17R
VIRGINIA BEACH PTCLDY    59  45  59 NE9       30.16R
NORFOLK NAVAL  MOCLDY    61  43  51 N20G32    30.19R
WEST POINT*    CLEAR     49  47  92 CALM      30.23R
SALUDA*        FAIR      58  45  60 N14       30.19R
NEWPORT NEWS   CLEAR     51  46  83 CALM      30.20R
LANGLEY AFB    CLEAR     55  47  75 N7        30.18R
FORT EUSTIS    PTCLDY    55  46  71 N7        30.17R
WILLIAMSBURG*  CLEAR     52  46  82 NW3       30.21R
HR EXEC AP*    NOT AVBL
FRANKLIN*      CLEAR     49  45  86 N3        30.20R
US460-WAKEFLD  CLEAR     48  46  93 CALM      30.21R
$$

VAZ020-022-025-037-045-170300-
WEST CENTRAL AND SOUTHWEST VIRGINIA

CITY           SKY/WX    TMP DP  RH WIND       PRES   REMARKS
STAUNTON*      CLEAR     48  37  65 NW5       30.28R
WAYNESBORO*    CLEAR     47  38  73 NW3       30.26R
HOT SPRINGS VA CLEAR     41  35  79 CALM      30.25S
LYNCHBURG      CLEAR     52  38  58 VRB3      30.25R
DANVILLE       CLEAR     53  42  66 NE6       30.24R
SOUTH BOSTON*  FAIR      52  41  67 N3        30.24R
MARTINSVILLE   CLEAR     43  41  93 CALM      30.28R
ROANOKE        CLEAR     51  39  63 N6        30.28R
BLACKSBURG     CLEAR     45  39  79 CALM      30.30R
DUBLIN*        CLEAR     50  38  64 CALM      30.29R
MARION*        CLEAR     43  35  73 CALM      30.31R
HILLSVILLE*    CLEAR     45  32  60 CALM      30.27R
RICHLANDS*     FAIR      44  36  72 N3        30.30R
WISE*          CLEAR     45  36  70 CALM      30.31R
ABINGDON*      CLEAR     47  39  73 CALM      30.30R
$$

MDZ021>025-VAZ099-100-170300-
SOUTHERN MARYLAND AND THE DELMARVA PENINSULA

CITY           SKY/WX    TMP DP  RH WIND       PRES   REMARKS
PATUXENT RIVER CLEAR     57  39  51 N14       30.20R
BAY BRIDGE APT CLEAR     59  39  47 NW10G21   30.20R
LEONARDTOWN    NOT AVBL
DOVER          CLEAR     48  42  81 N5        30.19R
GEORGETOWN     CLEAR     50  43  77 N5        30.20R
EASTON         CLEAR     48  45  87 CALM      30.24R
CAMBRIDGE      CLEAR     46  46 100 CALM      30.20R
SALISBURY      CLEAR     49  45  86 N5        30.19R
OCEAN CITY     CLEAR     48  45  89 N5        30.19R
WALLOPS ISLAND CLEAR     50  46  86 NW5       30.19R
ACCOMACK*      CLEAR     52  46  81 NE5       30.19R
$$

NCZ012>017-030>032-170300-
NORTH CENTRAL AND EASTERN NORTH CAROLINA

CITY           SKY/WX    TMP DP  RH WIND       PRES   REMARKS
ROANOKE RAPIDS FAIR      50  48  93 CALM      30.20R
RALEIGH        PTCLDY    56  47  71 NE7       30.21R
ELIZABETH CITY MOCLDY    59  51  75 N13       30.16R
AHOSKIE*       CLEAR     50  47  90 CALM      30.19R
EDENTON*       MOCLDY    58  52  80 CALM      30.17R
CURRITUCK*     MOCLDY    61  50  67 N12G17    30.16R
KILL DEVIL HLS CLOUDY    62  48  60 N13G24    30.11R
MANTEO         CLOUDY   N/A N/A N/A N24G31    30.13R
CAPE HATTERAS  CLOUDY    65  56  72 N15G30    30.08R
TARBORO*       NOT AVBL
GOLDSBORO      CLEAR     57  53  85 N9        30.17R
WASHINGTON     CLOUDY    58  52  79 N9        30.17R
GREENVILLE     CLEAR     54  50  87 N5        30.19R
NEW BERN       CLOUDY    60  54  80 N13       30.16R
WILMINGTON     CLOUDY    60  51  72 N14       30.14R
$$

VAZ048-170300-
ELSEWHERE

CITY           SKY/WX    TMP DP  RH WIND       PRES   REMARKS
HARRISBURG PA  CLEAR     53  31  42 NW9       30.22R
BALTIMORE      CLEAR     51  38  60 NW5       30.21R
ANNAPOLIS      CLEAR     59  44  57 VRB7      30.21R
ANDREWS AFB    CLEAR     53  36  52 N7        30.21R
PHILADELPHIA   CLEAR     52  34  50 N9        30.21R
HENDERSON NC   CLEAR     50  43  77 N3        30.22R
GREENSBORO     CLEAR     53  40  61 N7        30.23R
ROCKY MOUNT    CLEAR     53  50  89 N6        30.20R
$$

VAZ100-170300-
MARINE

STATION/POSITION TIME  TEMP    WIND        PRES    WAVE   SWELL
                       AIR SEA DIR/SP/G            HT/PER HT/PER
                 (UTC) (F)     (DEG/KT/KT) (MB)    (FT/S) (FT/S)
BRANDYWINE LGT   0142   59      30/ 20/ 23 1022.1R
CAPE MAY NJ      0148   54 67   40/  5/  8 1021.5R
LEWES DE         0148   60 66   20/ 18/ 21 1021.8R
15NM E FENWICK I 0150   60 68  350/ 19/ 23 1021.6R   5/ 5
OCEAN-CITY-INLET 0148   57 69  360/ 10/ 12 1022.2R
WACHAPREAGUE VA  0148   54 67  350/  4/  7 1022.1R
THOMAS POINT MD  0200   58 69  330/ 14/ 16   N/A
GOOSES REEF MD   0140   63     350/ 19/ 23 1015.0R
COVE POINT MD    0148   61     350/ 20/ 26 1023.2R
SOLOMONS ISLAND  0148   57 71  340/ 12/ 14 1022.4R
BISHOPS HEAD MD  0148   59 65   30/  8/ 13 1022.5R
PINEY POINT MD   0148           10/ 14/ 16   N/A
POTOMAC MD       0120   60      10/ 12/ 14 1021.7
CAMBRIDGE MD     0148   57 69              1023.4R
LEWISETTA VA     0148   61 67   10/ 12/ 19 1022.6R
RAPPAHANNOCK LGT 0148           30/ 19/ 25 1022.5R
STINGRAY PT      0130   62     360/ 12/ 16 1022.1R
YORK RVR RNG VA  0148   62     360/ 15/ 18 1022.5R
YORKTOWN VA      0148   59 71  340/ 10/ 12 1022.1R
JAMESTOWN VA     0130          350/  8/  8   N/A
DOMINION TERM VA 0148   59     330/  3/  7 1022.3R
KIPTOPEKE VA     0148      71   40/  5/ 11   N/A
CAPE HENRY VA    0148   61      20/ 20/ 23   N/A
WILLOUBY STN VA  0136   62     350/ 18/ 20 1021.7R
S CRANEY ISL VA  0148   62     350/ 18/ 21 1021.4R
CAPE HENRY BUOY  0130      72                N/A     6/ 6
1ST LANDING BUOY 0130   63                 1021.0R
CAPE CHARLES BUO 0151      71                N/A     5/ 5
64NM E OF VA BCH 0150   63 69  360/ 23/ 29 1019.6R   8/ 7   2/12
DUCK PIER NC     0148   64 71   10/ 24/ 30 1019.7R
44100 DUCK FRF   0135      72                N/A     8/ 7   2/13
44056 DUCK FRF   0130      72                N/A     7/ 6   2/11
OREGON INLET NC  0136   63 73  350/ 16/ 27 1019.2R
HATTERAS NC      0148   66 75   20/ 28/ 32 1018.3R
DIAMOND SHLS NC  0150   68 82   10/ 29/ 33 1016.8R   8/ 7   2/11
CAPE LOOKOUT NC  0200   61     360/ 23/ 27 1019.2R
$$




USA.gov is the U.S. government's official web portal to all federal, state and local government web resources and services.